Lapse_Rate
7.0 6.5 6.5 6.5 6.5 6.5 6.5 6.5 6.5 6.5 6.5 6.5 6.5 6.5 6.5 6.9 7.0 7.0 7.2 7.5 7.6 7.9 8.5 8.7 9.0 9.2 8.9 8.5 8.5 7.8 7.1 6.7 6.3 5.9 6.2 6.3 6.2 5.6 5.6 5.0 4.4 4.7 4.3 4.5
6.5 6.5 6.5 6.5 6.5 6.5 6.5 6.5 6.5 6.5 6.5 6.5 6.5 6.5 6.5 6.5 6.7 7.0 7.1 7.3 7.5 7.9 8.2 8.5 8.8 9.0 8.6 8.3 8.1 8.5 7.2 6.4 6.7 6.9 7.1 7.6 6.8 6.5 5.7 4.8 4.6 4.6 4.6 4.4
6.5 6.5 6.5 6.5 6.5 6.5 6.5 6.5 6.5 6.5 6.5 6.5 6.5 6.5 6.5 6.5 6.9 7.2 7.4 7.5 7.7 7.8 8.0 8.3 8.6 8.7 8.6 8.2 8.0 8.6 7.4 6.5 6.9 7.2 6.1 6.1 5.4 5.0 4.8 4.9 4.7 4.4 4.6 4.2
6.5 6.6 6.5 6.5 6.5 6.5 6.5 6.5 6.5 6.5 6.5 6.5 6.5 6.5 6.5 6.5 6.5 6.5 7.1 7.3 7.6 7.8 8.1 8.3 8.5 8.6 8.8 8.4 7.9 8.5 8.1 6.7 6.9 6.5 6.2 6.2 6.9 6.3 6.5 5.8 5.6 4.5 4.7 4.4
6.5 6.5 6.5 6.5 6.5 6.5 6.5 6.5 6.5 6.5 6.5 6.5 6.5 6.5 6.5 6.5 6.5 6.5 6.7 7.2 7.5 7.9 8.0 8.1 8.4 8.6 8.9 8.9 8.1 7.9 8.5 6.9 6.6 6.2 7.1 7.3 8.5 8.8 7.1 6.5 5.6 5.5 4.9 4.7
6.5 7.0 6.5 6.5 6.5 6.5 6.5 6.5 6.5 6.5 6.5 6.5 6.5 6.5 6.5 6.5 6.5 6.5 6.8 7.2 7.5 7.8 8.0 8.3 8.6 8.8 8.8 8.7 8.1 7.4 8.2 6.7 6.4 6.4 7.0 7.5 7.9 7.4 6.5 6.2 6.0 5.7 5.5 4.9
6.5 6.5 6.5 6.6 6.5 6.5 6.5 6.5 6.5 6.5 6.5 6.5 6.5 6.5 6.5 6.5 6.5 6.5 6.6 7.1 7.5 7.9 8.0 8.1 8.3 8.4 8.6 8.3 8.1 7.9 7.7 6.6 6.5 6.4 6.7 7.3 7.8 7.7 7.4 6.8 6.8 6.4 5.9 5.4
6.5 6.5 6.5 6.5 6.5 6.5 6.5 6.5 6.5 6.5 6.5 6.5 6.5 6.5 6.5 6.5 6.8 7.1 7.3 7.5 7.7 7.8 8.1 8.2 8.4 8.5 8.5 8.4 7.7 7.4 7.0 6.8 6.7 6.5 6.8 7.1 7.5 7.7 7.8 7.6 7.4 7.2 7.0 6.6
6.5 6.5 6.5 6.5 6.5 6.5 6.5 6.5 6.5 6.5 6.5 6.5 6.5 6.5 6.5 6.5 6.5 6.8 7.0 7.3 7.4 7.7 8.0 8.1 8.4 8.6 8.6 8.6 7.8 7.6 7.3 7.6 6.8 7.0 7.1 7.0 7.1 7.3 7.4 7.5 7.4 7.5 7.5 7.2
6.5 6.5 6.5 6.5 6.6 6.6 6.5 6.5 6.5 6.5 6.5 6.5 6.5 6.5 6.5 6.5 6.5 6.5 6.6 7.0 7.4 7.7 8.0 8.2 8.4 8.6 8.8 8.7 7.6 7.8 7.7 7.8 7.0 7.0 7.1 7.0 6.9 7.0 7.3 7.3 6.9 6.9 7.2 6.8
6.5 6.5 6.5 6.5 6.5 6.5 6.5 6.5 6.5 6.5 6.5 6.5 6.5 6.5 6.5 6.5 6.5 6.5 6.7 7.2 7.4 7.7 7.9 8.1 8.3 8.3 8.1 7.6 6.9 6.6 6.8 6.8 6.6 6.7 6.8 6.7 6.7 6.9 6.9 6.9 7.1 7.3 7.2 7.1
6.5 6.5 6.5 6.5 6.5 6.5 6.5 6.5 6.5 6.5 6.5 6.5 6.5 6.5 6.5 6.5 6.5 5.3 6.5 7.1 7.6 7.8 8.0 8.2 8.2 7.9 7.4 6.6 6.2 6.0 6.0 5.7 5.9 6.1 6.4 6.4 6.4 6.5 6.5 6.5 6.8 7.2 7.1 7.0
6.5 6.5 6.5 6.5 6.5 6.5 6.5 6.5 6.5 6.5 6.5 6.5 6.5 6.5 6.5 6.6 6.5 5.3 6.1 7.2 7.5 7.7 7.9 8.1 8.2 8.0 7.2 6.7 6.0 5.1 4.8 4.6 5.1 5.6 6.0 5.9 6.1 6.1 6.3 6.4 6.5 6.5 6.6 6.8
6.7 6.5 6.5 6.5 6.5 6.5 6.5 6.5 6.5 6.5 6.5 6.5 6.5 6.5 6.5 6.5 6.5 6.6 6.9 7.2 7.3 7.5 7.5 7.9 7.8 7.7 5.9 4.7 3.7 2.7 2.2 3.6 4.8 5.5 5.8 5.6 5.6 5.8 5.8 5.8 5.9 6.1 6.4 6.7
6.5 6.5 6.5 6.5 6.5 6.5 6.5 6.5 6.5 6.5 6.5 6.5 6.5 6.5 6.5 6.5 6.5 6.3 5.3 5.5 6.5 6.9 5.3 5.4 5.4 4.8 3.8 2.8 2.4 2.2 2.2 3.0 3.8 4.3 4.4 4.4 4.8 5.0 5.0 5.1 5.1 5.4 5.6 6.0
6.5 6.5 6.5 6.5 6.5 6.5 6.5 6.5 6.5 6.5 6.5 6.5 6.5 6.5 6.5 6.1 5.5 6.3 6.6 6.6 6.6 5.7 4.5 3.9 3.6 3.2 2.6 2.2 1.9 1.8 1.6 1.4 1.6 2.1 2.3 2.7 3.4 3.6 3.7 4.0 4.1 4.6 4.9 5.4
6.5 6.5 6.5 6.5 6.5 6.5 6.5 6.5 6.5 6.5 6.5 6.5 6.5 6.5 6.5 6.5 6.5 6.7 6.8 6.8 6.5 5.9 4.3 3.3 3.2 2.8 2.0 1.6 1.5 1.5 1.5 1.2 0.9 0.6 1.8 2.3 2.5 2.7 3.0 3.4 3.7 3.8 4.3 4.8
6.5 6.5 6.5 6.5 6.5 6.5 6.5 6.5 6.5 6.5 6.5 6.5 6.5 6.5 6.5 6.6 6.5 6.2 6.5 7.2 6.5 5.1 4.5 4.2 2.3 1.0 1.1 0.7 0.7 0.7 1.6 1.4 1.5 1.5 1.6 3.1 2.9 2.8 3.3 3.0 2.9 3.4 4.0 4.1
6.5 6.5 6.5 6.5 6.5 6.5 6.5 6.5 6.5 6.5 6.5 6.5 6.5 6.5 6.7 6.9 7.0 6.4 5.5 5.9 5.4 5.5 3.5 0.6 -1.2 -1.4 -2.1 0.1 0.6 1.1 1.8 2.5 1.8 1.8 2.9 3.7 3.7 3.4 3.7 3.4 3.5 4.0 4.0 4.1
6.5 6.5 6.5 6.5 6.5 6.5 6.5 6.5 6.8 6.5 6.5 6.5 6.4 6.5 6.6 6.9 6.5 6.5 5.4 2.9 1.1 -0.1 -1.4 -2.1 -2.5 -2.0 -0.2 -1.2 -0.4 2.4 2.4 2.3 2.1 1.8 1.9 2.2 2.7 3.3 3.7 4.1 3.7 3.5 3.9 4.0
6.5 6.5 6.5 6.5 6.5 6.5 6.5 6.6 6.9 6.5 6.5 6.7 6.9 6.9 6.8 6.5 6.6 6.0 5.2 3.0 0.7 -1.0 -2.0 -2.6 -3.5 -4.3 -4.9 -3.8 -2.5 2.1 2.9 0.7 0.5 0.9 1.5 2.1 2.7 3.1 3.8 3.7 3.8 3.8 3.5 3.7
6.5 6.5 6.5 6.5 6.5 6.5 6.8 6.7 6.5 6.6 7.1 7.1 7.2 7.2 6.5 7.0 6.9 5.6 2.7 1.1 -0.1 -1.9 -2.9 -3.3 -3.5 -4.5 -5.3 -4.9 -3.3 -1.6 -1.0 -0.6 -0.1 0.4 1.2 2.2 3.1 3.0 3.0 3.3 3.6 3.8 3.8 3.6
6.5 6.5 6.5 6.5 6.5 6.6 7.2 7.0 7.5 7.6 7.2 7.3 7.2 6.8 5.3 7.2 7.4 5.3 1.8 0.1 -1.0 -1.8 -2.7 -3.5 -3.7 -3.6 -4.5 -4.3 -3.6 -2.5 -2.2 -0.6 -0.1 0.8 1.8 2.4 3.2 3.7 3.7 3.7 3.8 4.0 4.2 4.2
6.5 6.7 6.5 6.5 6.5 6.6 7.1 7.6 7.8 7.9 7.5 7.4 7.7 7.6 7.6 7.5 7.7 5.4 3.0 1.4 -0.2 -1.5 -2.8 -3.1 -2.8 -3.1 -3.3 -3.3 -2.8 -3.2 -2.0 -0.7 0.2 1.4 1.7 2.8 3.4 4.6 4.4 4.6 4.9 4.6 4.7 5.0
6.6 6.6 6.5 6.5 6.5 6.9 7.2 7.5 7.7 7.5 7.7 7.8 8.0 8.0 7.8 7.7 7.3 4.7 3.3 1.9 0.6 -0.7 -1.8 -2.4 -2.2 -2.2 -2.7 -2.4 -2.0 -2.0 -2.1 -0.7 0.6 2.0 2.8 3.5 4.4 4.4 4.3 5.1 5.5 5.7 6.3 6.8
6.8 6.5 6.5 6.5 6.8 6.8 7.0 7.5 7.8 7.7 7.7 7.7 6.3 6.4 7.1 5.6 4.7 4.3 3.0 2.4 1.1 -0.1 -0.2 -0.9 -1.6 -2.3 -1.9 -1.7 -2.0 -1.5 -2.1 -0.9 0.1 2.4 3.5 4.1 4.7 4.7 5.1 5.2 4.9 6.6 8.9 8.9
Wind_Speed
10 8 15 18 18 16 7 8 10 3 3 6 14 10 11 9 8 10 12 13 14 15 16 17 16 16 15 14 14 14 13 12 8 6 6 5 4 4 4 6 6 7 7 7
6 17 13 11 14 11 9 9 10 3 4 6 6 13 12 11 11 8 9 11 12 13 16 17 16 17 15 15 15 14 13 13 9 6 5 3 5 4 5 5 5 6 7 7
15 3 7 10 8 11 14 14 11 6 5 4 4 9 14 6 6 5 4 4 7 13 16 16 17 18 16 16 15 15 14 13 10 8 6 5 6 5 3 4 4 6 6 7
12 7 7 10 15 14 12 8 8 7 7 5 4 6 15 14 10 9 8 8 8 11 13 16 17 17 17 15 14 14 14 13 10 11 8 9 5 5 4 5 5 6 7 7
6 7 9 8 4 12 4 4 7 8 8 2 6 2 5 7 11 11 8 4 5 7 12 15 16 16 16 14 12 13 14 13 11 10 8 6 5 4 4 4 6 5 6 6
1 2 1 1 5 1 13 9 6 3 3 4 8 9 8 8 9 14 7 5 3 5 9 13 13 14 13 12 12 11 13 13 12 10 9 8 6 6 5 5 5 5 4 6
3 4 2 3 7 6 4 7 3 4 4 7 3 5 13 6 3 7 8 6 6 7 8 11 12 13 13 13 13 12 14 13 12 11 10 8 6 6 6 6 5 6 4 4
10 6 10 8 1 5 9 4 4 6 6 4 4 7 3 6 6 7 7 7 8 9 9 11 12 12 13 13 13 13 13 13 12 11 10 8 7 4 4 5 4 4 4 4
9 8 3 2 1 1 6 7 3 4 1 2 6 5 4 8 9 9 10 10 10 10 10 11 11 11 11 11 11 12 12 12 11 10 8 8 6 6 5 4 4 3 4 4
4 3 0 3 1 1 2 1 4 2 5 7 9 5 5 13 14 13 12 12 11 10 11 11 10 10 10 10 9 8 9 9 9 9 8 6 7 6 5 5 6 5 5 7
3 1 4 4 9 8 4 3 3 1 2 4 4 4 3 10 15 16 14 13 12 11 11 10 10 10 10 10 10 9 8 8 7 6 6 6 5 6 5 5 6 6 6 7
3 3 5 3 2 1 2 3 6 4 6 2 2 2 2 5 10 9 13 12 12 11 11 10 11 11 11 11 10 9 9 8 6 5 5 4 4 5 5 5 5 6 6 7
7 5 4 3 2 2 5 5 2 2 1 7 4 3 2 3 7 8 12 13 11 11 11 10 10 10 10 10 10 9 8 8 6 6 6 5 4 3 3 3 3 4 4 5
4 2 3 6 3 5 6 8 7 3 4 6 6 3 6 10 13 14 13 12 11 9 8 9 9 9 9 9 8 8 7 6 6 6 6 6 5 4 3 2 0 2 3 4
2 4 5 3 4 1 1 5 12 12 12 8 4 10 10 17 16 13 10 11 11 10 7 6 7 8 8 7 7 7 6 6 6 6 6 5 4 4 3 3 3 2 2 3
3 1 1 3 2 2 4 4 10 10 6 6 2 5 1 7 11 10 13 12 12 11 10 8 7 8 7 6 6 5 6 6 6 5 5 4 4 4 3 3 3 3 3 3
4 5 4 4 3 3 7 10 13 7 6 10 10 8 9 6 12 14 14 12 11 11 10 10 9 7 6 6 5 5 4 3 3 3 2 2 2 2 2 3 3 3 3 4
5 3 2 3 2 7 1 1 1 11 3 9 2 4 4 7 8 10 6 11 10 10 11 9 7 4 5 4 4 3 1 1 2 3 4 3 2 2 3 2 3 4 4 4
1 4 4 4 6 7 2 5 6 7 6 17 9 9 12 12 10 4 5 8 9 10 8 7 4 3 3 4 4 3 2 1 0 2 3 4 4 4 4 4 5 5 5 5
1 1 3 3 4 5 2 3 2 1 3 2 9 14 15 13 9 6 11 11 11 8 5 4 4 4 5 6 5 1 2 2 2 3 4 5 6 7 6 6 7 6 7 7
4 3 8 7 5 4 4 6 4 4 1 3 8 12 15 6 4 17 14 12 9 7 6 5 5 5 4 5 5 4 5 6 6 7 7 7 6 8 8 7 7 7 5 6
7 8 5 6 5 8 5 6 4 3 4 5 9 11 9 13 14 14 13 10 8 7 6 5 4 4 4 6 5 6 7 7 8 8 8 7 7 6 6 8 7 7 6 6
3 2 2 5 1 4 6 7 4 3 6 6 9 11 12 14 14 12 10 9 7 6 5 4 4 4 5 5 5 5 7 8 8 8 7 8 8 7 7 8 7 7 7 7
3 2 1 2 4 5 6 7 7 7 9 8 10 11 13 13 13 13 10 8 6 5 4 3 4 5 5 4 5 4 6 7 7 7 7 7 6 7 7 5 5 6 6 5
3 3 2 2 4 5 4 7 7 10 11 12 10 10 11 12 12 11 10 8 6 5 4 4 4 3 4 4 4 4 5 7 6 6 5 6 6 7 7 7 5 5 6 7
5 4 2 2 5 3 6 7 7 10 10 10 11 12 11 10 10 10 9 7 6 5 3 3 3 3 3 3 3 4 4 6 6 7 6 6 6 6 6 7 7 13 16 17
Wind_Direction
196 208 208 209 214 239 306 259 254 158 135 211 226 243 210 172 185 195 187 183 186 186 182 188 185 180 178 177 173 167 162 159 155 158 158 153 147 138 134 120 132 131 138 128
190 230 222 224 240 228 238 240 239 85 164 220 221 244 233 194 209 218 205 191 188 182 174 179 183 182 182 181 178 170 169 164 167 163 157 149 137 147 130 133 138 140 147 151
217 246 236 184 193 206 229 230 231 245 166 234 287 256 218 201 207 194 219 264 205 193 184 180 185 184 185 186 182 176 172 169 167 157 136 130 112 125 151 160 151 159 157 162
233 193 166 201 217 206 226 222 252 177 189 236 201 268 218 188 197 204 186 194 204 209 200 186 188 186 185 187 183 179 172 171 167 159 165 167 170 167 177 171 161 159 166 166
185 190 187 194 211 195 212 136 203 207 230 307 187 234 226 161 208 199 181 181 193 214 208 196 188 184 185 182 177 178 173 172 168 173 178 177 183 152 150 156 160 165 169 170
66 67 294 96 89 309 137 117 103 114 179 240 220 212 232 189 220 181 165 156 162 183 196 190 181 175 172 172 173 172 171 175 171 176 182 185 180 158 162 168 173 175 174 177
141 185 156 172 111 135 184 162 145 201 201 238 146 209 238 121 80 156 157 139 127 139 153 158 165 166 164 165 171 171 173 176 175 179 184 189 188 180 184 174 188 179 182 186
199 217 178 167 228 176 186 205 191 219 208 206 136 226 208 118 125 125 129 125 125 121 138 154 160 161 164 166 166 168 173 173 177 180 185 187 191 190 197 184 191 187 197 193
209 207 107 47 64 276 171 217 46 86 37 280 190 224 174 162 160 154 143 136 126 123 126 130 139 145 150 156 162 167 172 172 179 180 180 187 189 200 195 192 192 200 198 190
200 121 316 100 173 80 265 80 156 205 207 233 209 235 218 192 178 166 161 147 135 129 123 120 117 120 122 125 131 139 157 162 169 175 179 185 191 199 206 198 194 200 200 191
131 201 126 160 206 181 153 194 219 307 259 242 241 218 5 182 174 169 164 154 144 138 131 124 116 111 110 112 115 118 124 134 145 163 174 175 185 192 202 210 215 213 212 203
171 106 162 188 75 16 314 213 190 206 190 231 339 263 26 14 148 154 148 145 142 136 131 124 120 116 111 107 107 105 106 105 108 124 146 163 169 184 197 209 221 218 217 216
191 190 146 188 180 172 218 184 171 103 354 197 199 193 90 145 120 129 141 154 149 141 136 130 125 118 110 106 104 97 92 91 93 104 115 123 130 154 177 192 208 217 227 233
166 203 229 232 100 114 189 187 186 172 196 189 220 169 201 183 173 169 167 156 147 147 138 129 122 112 103 100 98 93 78 68 74 86 95 92 82 82 83 81 128 222 229 233
219 221 204 92 81 67 215 180 181 198 215 213 203 200 195 192 182 168 137 130 149 145 134 116 105 108 104 97 89 83 73 63 53 66 69 60 49 43 38 38 23 348 291 280
174 204 101 203 113 32 281 207 197 227 238 276 235 264 50 107 121 150 157 160 161 158 147 129 116 111 98 90 88 79 65 54 40 48 54 39 34 24 21 7 348 325 295 265
169 154 157 253 59 334 271 205 199 189 201 213 203 215 153 166 167 169 164 169 159 157 148 143 133 121 104 96 88 80 80 66 51 34 357 42 42 18 358 332 322 303 291 288
145 158 93 247 174 247 323 41 290 225 201 202 172 144 144 135 103 110 143 162 147 141 142 141 120 101 88 57 50 30 69 48 24 358 336 334 339 327 327 314 301 294 279 266
309 168 176 202 204 307 218 201 175 173 262 198 178 146 126 126 110 82 88 125 135 122 109 107 78 52 25 50 29 15 24 116 2 337 320 339 340 322 309 301 295 293 283 273
112 328 231 161 224 233 53 143 136 155 268 214 154 155 152 155 178 161 136 109 100 96 82 80 57 49 75 14 347 344 87 75 52 356 326 324 319 312 305 301 301 294 290 284
167 189 213 209 243 283 88 132 152 188 295 149 156 148 158 161 36 122 125 114 103 96 83 78 67 69 31 1 338 43 43 45 357 341 327 314 308 302 297 295 291 288 279 278
174 167 193 198 222 249 134 123 214 32 56 135 136 143 119 115 112 117 116 111 106 97 73 57 79 65 28 16 21 39 38 357 348 340 328 325 319 311 303 298 293 288 282 268
214 253 183 213 178 78 42 62 57 355 115 110 115 114 119 128 131 127 118 109 98 93 85 63 67 73 43 29 32 39 1 353 344 335 336 331 325 314 302 295 291 287 282 276
203 188 244 194 125 90 81 71 51 66 94 105 124 129 130 130 129 124 120 118 109 95 83 63 66 61 50 22 32 28 356 347 338 338 336 326 329 316 314 307 291 285 280 269
28 166 183 121 98 117 84 67 84 88 90 95 99 112 121 125 124 123 119 116 109 98 76 56 59 55 42 7 14 12 353 348 349 341 332 336 326 331 317 308 299 287 282 269
0 12 286 58 23 3 78 85 100 101 94 94 101 94 86 104 112 112 105 104 105 102 88 72 61 39 13 2 352 354 342 351 346 343 347 332 332 327 316 312 306 297 291 281